379  
ASHW40 PHFO 302210  
RWRHI  
 
WEATHER ROUNDUP FOR HAWAII  
NATIONAL WEATHER SERVICE HONOLULU HI  
1200 PM HST SAT MAY 30 2015  
 
THIS IS AN AUTOMATED REPORT THAT HAS NOT BEEN QUALITY CONTROLLED.  
 
NOTE..."FAIR" INDICATES FEW OR NO CLOUDS BELOW 12,000 FEET WITH NO  
SIGNIFICANT WEATHER AND/OR S TO VISIBILITY
.  
 
* - THESE SITES REPORT LIMITED FIELDS  
 
HIZ001>004-302300-  
KAUAI-NIIHAU-  
 
CITY SKY/WX TMP DP RH WIND PRES REMARKS
 
LIHUE APT MOSUNNY 81 66 60 NE13 30.02F  
PORT ALLEN* NOT AVBL  
POIPU* N/A 81 N/A N/A NE8G16 N/A  
PRINCEVILLE* N/A 79 N/A N/A MISG N/A  
KOKOLE POINT* NOT AVBL  
MOLOAA DAIRY* NOT AVBL  
WAIMEA HTS* NOT AVBL  
PUU OPAE* NOT AVBL  
PUU LUA* NOT AVBL  
MAKAHA RIDGE* NOT AVBL  

 
 
HIZ005>011-302300-  
OAHU-  
 
CITY SKY/WX TMP DP RH WIND PRES REMARKS
 
HONOLULU MOSUNNY 84 64 50 N5G23 29.97F  
KALAELOA SUNNY 83 68 60 SE10 29.99F  
KANEOHE MCB PTSUNNY 81 68 64 NE12 29.98F  
WHEELER FIELD FAIR 83 63 49 VRB6 29.98F  
BELLOWS* NOT AVBL  
KAHUKU* NOT AVBL  
WHEELER* NOT AVBL  
WAIANAE HARBOR NOT AVBL  
DILLINGHAM* N/A 90 68 48 MISG N/A HX 93  
KAHUKU TRN* N/A 68 57 68 E9G18 N/A  
KAWAILOA* N/A 79 66 65 NE12G18 N/A  
KII* N/A 75 68 78 E13 N/A  
MAKUA RANGE* N/A 82 66 57 E10G20 N/A  
OAHU FOREST NW NOT AVBL  
SCHOFIELD BRK* N/A 61 46 59 MISG N/A  
SCHOFIELD S* NOT AVBL  
WAIANAE VLY* NOT AVBL  
KUAOKALA* NOT AVBL  
HONOULIUULI* NOT AVBL  
MOKUOLOE IS* NOT AVBL  
PALEHUA* NOT AVBL  
WAIAWA PHB* NOT AVBL  

 
 
HIZ012>013-302300-  
MOLOKAI-  
 
CITY SKY/WX TMP DP RH WIND PRES REMARKS
 
MOLOKAI AIRPT MOSUNNY 82 66 58 N10G23 30.00S  
KALAUPAPA NOT AVBL  
MAKAPULAPAI* NOT AVBL  
MOLOKAI 1* NOT AVBL  
PUU ALII* NOT AVBL  

 
 
HIZ016-302300-  
KAHOOLAWE-  
 
CITY SKY/WX TMP DP RH WIND PRES REMARKS
 
KAHOOLAWE* NOT AVBL  
HAKIOAWA* NOT AVBL  
HONOKANAIA* N/A 81 70 68 E12G18 29.99  
KANELOA* N/A 81 68 65 NE10G18 30.05F  
KEALIALALO* NOT AVBL  
LUA MAKIKA* NOT AVBL  

 
 
HIZ014>015-302300-  
LANAI-  
 
CITY SKY/WX TMP DP RH WIND PRES REMARKS
 
LANAI CITY LGT RAIN 75 68 78 CALM 30.00S  
LANAI 1* NOT AVBL  

 
 
HIZ017>028-302300-  
MAUI-  
 
CITY SKY/WX TMP DP RH WIND PRES REMARKS
 
KAHULUI MOSUNNY 82 68 61 MISG 30.00S  
KAPALUA-W MAUI MOSUNNY 82 68 61 N14G26 29.98  
HANA AIRPORT CLOUDY 79 70 73 NE9 30.02S  
HANA* NOT AVBL  
HALEAKALA SUMM N/A 61 46 59 SW3 N/A  
MAALAEA BAY* NOT AVBL  
HALEAKALA* NOT AVBL  
KAUPO GAP* NOT AVBL  
KULA 1* N/A 60 58 92 W5 N/A  

 
 
HIZ023>026-302300-  
BIG ISLAND OF HAWAII COAST AND LOWER SLOPES-  
 
CITY SKY/WX TMP DP RH WIND PRES REMARKS
 
KAILUA KONA MOSUNNY 84 69 60 NW12 29.95F  
HILO MOSUNNY 82 70 66 N12 29.98S  
HONOKAA* NOT AVBL  
KAWAIHAE MWT* NOT AVBL  
KAWAIHAE* N/A 82 N/A N/A W9 N/A  
SOUTH POINT* NOT AVBL  
UPOLU AIRPORT* NOT AVBL  
KAMUELA* CLOUDY 73 64 73 NE10 30.07S  
HAKALAU* N/A 58 56 94 E3G9 N/A  
KALOKO-HONOKO* NOT AVBL  
PALI 2* N/A 75 64 69 S8G14 N/A  
KEALAKOMO* N/A N/A N/A N/A E15G21 N/A  
KAUPULEHU* NOT AVBL  
KAPAPALA* N/A 79 66 64 S7G13 N/A  
LOWER KAHUKU* NOT AVBL  
PUHE CS* NOT AVBL  
PUHO CS* NOT AVBL  
PTA KEAMUKU* N/A 75 61 60 CALM N/A  
WAIKOLOA* NOT AVBL  

 
 
HIZ027>028-302300-  
BIG ISLAND OF HAWAII INTERIOR AND SUMMMITS-  
 
CITY SKY/WX TMP DP RH WIND PRES REMARKS
 
BRADSHAW FIELD SUNNY 70 51 51 W9G17 30.28F  
MK VISITOR CEN NOT AVBL  
MAUNA KEA* N/A 45 23 42 NW10 N/A  
MAUNA LOA* N/A 50 41 71 MISG N/A  
MAUNA LOA 1* NOT AVBL  
PTA KIPUKA* N/A 70 55 60 N8G17 N/A  
PTA RANGE 17* N/A 48 36 61 NW8G18 N/A  
PTA WEST* N/A 73 63 68 NW12G18 N/A  
NENE CABIN* NOT AVBL  
AHUMOA* NOT AVBL  
PTA PORTABLE* NOT AVBL  
PUU MALI* N/A 57 57 100 N3 N/A  

 
 
HIC003-302300-  
NORTHWEST ISLANDS-  
 
CITY SKY/WX TMP DP RH WIND PRES REMARKS
 
MIDWAY ISLAND MOSUNNY N/A N/A N/A E12G21 30.20S  
MIDWAY NOS* NOT AVBL  
FRENCH FRIGATE NOT AVBL  

 
 
PHZ110>124-180-302300-  
BUOY REPORTS  
 
STATION/POSITION TIME TEMP WIND PRES WAVE SWELL
 
AIR SEA DIR/SP/G HT/PER HT/DIR  
(UTC) (F) (DEG/KT/KT) (MB) (FT/S) (FT/D)  
BUOY 51001 NOT AVBL  
BUOY 51101 2200 74 76 70/ 16/ 17 1017.6F 4/11 3/ 60  
BUOY 51100 NOT AVBL  
BUOY 51002 2200 79 81 50/ 8/ 10 1014.1F 4/17 5/170  
BUOY 51003 2100 78 79 90/ 8/ 10 1015.3F 4/ 8 3  
BUOY 51004 2051 79 80 80/ 4/ 6 1014.1 5/ 8 5/100  
BARBERS PT BUOY NOT AVBL  
WAIMEA BAY BUOY 2200 77 N/A 3/ 6  
KAILUA BAY BUOY 2200 78 N/A 3/ 8 2/350  
LANAI BUOY NOT AVBL  
BARBERS PT 2 2200 79 N/A 3/15 2/200  
PAUWELA MAUI 2100 77 N/A 3/ 9  
HILO 2200 78 N/A 4/ 8 2/140  
KANEOHE BAY BUOY 2200 78 N/A 3/ 9  
HANALEI KAUAI 2200 78 N/A 5/ 6  
KAHULUI HARBOR 2200 76 79 20/ 11/ 13 1015.4F  
HONOLULU HARBOR 2200 81 77 350/ 5/ 12 1014.9F  
KILO NALU NOT AVBL  
HILO HARBOR 2200 78 77 20/ 15/ 17 1014.7S  
MOKUOLOE 2200 77 79 50/ 8/ 11 1016.0F  
NAWILIWILI 2200 78 78 60/ 7/ 14 1016.0F  
WHOTS BUOY NOT AVBL  
BUOY 51028 NOT AVBL  

 
   
.....................KEY.....................................
 
 
SKY/WX - SKY CONDITIONS/PRESENT WEATHER  
TMP - TEMPERATURE IN FAHRENHEIT  
DWPT - DEWPOINT IN FAHRENHEIT  
RH - RELATIVE HUMIDITY IN PERCENT  
WIND - DIRECTION AND SPEED /MPH FOR ISLANDS...KTS FOR BUOYS/  
PRES - MEAN SEA LEVEL PRESSURE IN INCHES OF HG  
VSB - VISIBILITY IN MILES  
HX - HEAT INDEX  
WCI - WIND CHILL INDEX  
VRB - VARIABLE WIND DIRECTION  
N/A - NOT AVAILABLE  
 
CLICK HERE TO GO TO PREVIOUS BULLETINS.

The Nexlab HI Page Main Text Page